Skip Page Navigation
NASA JPL Caltech
NASA Logo - Jet Propulsion Laboratory + View the NASA Portal
+ Center for Near-Earth Object Studies
JPL Home Earth Solar System Stars & Galaxies Technology
JPL Solar System Dynamics
BODIES ORBITS EPHEMERIDES TOOLS PHYSICAL DATA DISCOVERY FAQ SITE MAP
JPL Small-Body Database Browser
Search: [ help ]  
214070 (2004 GF9)
Classification: Main-belt Asteroid          SPK-ID: 2214070
Ephemeris | Orbit Diagram | Orbital Elements | Mission Design | Physical Parameters | Discovery Circumstances | Close-Approach Data ]

[ show orbit diagram ]
Orbital Elements at Epoch 2459000.5 (2020-May-31.0) TDB
Reference: JPL 13 (heliocentric ecliptic J2000)
 Element Value Uncertainty (1-sigma)   Units 
e .1533983645023176 6.7365e-08  
a 3.147105215266696 2.9398e-08 au
q 2.664344422328071 2.2508e-07 au
i 17.00387437955514 6.4079e-06 deg
node 220.793403138432 1.6975e-05 deg
peri 357.5748815550845 2.3962e-05 deg
M 318.0468141521389 1.941e-05 deg
tp 2459238.144499189856
(2021-Jan-23.64449919)
0.00011181 TDB
period 2039.225817524175
5.58
2.8573e-05
7.823e-08
d
yr
n .1765375844628508 2.4736e-09 deg/d
Q 3.629866008205322 3.3907e-08 au
  Orbit Determination Parameters
   # obs. used (total)      350  
   data-arc span      7150 days (19.58 yr)  
   first obs. used      2000-09-27  
   last obs. used      2020-04-25  
   planetary ephem.      DE431  
   SB-pert. ephem.      SB431-N16  
   condition code      0  
   norm. resid. RMS      .5594  
   source      ORB  
   producer      Otto Matic  
   solution date      2020-May-21 09:02:23  

Additional Information
 Earth MOID = 1.65684 au 
 Jupiter MOID = 1.35409 au 
 T_jup = 3.123 
[ hide covariance matrix ]
Orbital Elements at Epoch 2457026.5 (2015-Jan-04.0) TDB
Reference: JPL 13 (heliocentric ecliptic J2000)
 Element Value Uncertainty (1-sigma)   Units 
e .1537666781412961 6.75e-08  
q 2.662987883974998 2.2551e-07 au
tp 2457194.990601642763
(2015-Jun-21.49060164)
9.7454e-05 TDB
node 220.8259799893958 1.6975e-05 deg
peri 356.9974326176047 2.3859e-05 deg
i 17.00420164792718 6.4085e-06 deg
  Orbit Determination Parameters
   # obs. used (total)      350  
   data-arc span      7150 days (19.58 yr)  
   first obs. used      2000-09-27  
   last obs. used      2020-04-25  
   planetary ephem.      DE431  
   SB-pert. ephem.      SB431-N16  
   condition code      0  
   norm. resid. RMS      .5594  
   source      ORB  
   producer      Otto Matic  
   solution date      2020-May-21 09:02:23  

Additional Information
 Jupiter MOID = 1.35409 au 
 T_jup = 3.123 
Orbit Covariance (6×6)
  e q tp node peri i
e 4.556302244034906E-15 -1.515175224000305E-14 -2.814632595980514E-12 -1.050685102784263E-14 -4.140044094623616E-13 -3.21964464281376E-15
q -1.515175224000305E-14 5.085628681044483E-14 9.739743022501345E-12 3.467599669403233E-14 1.432902049925587E-12 1.292729218863079E-14
tp -2.814632595980514E-12 9.739743022501345E-12 9.49730611995928E-9 -8.237055203629252E-12 1.657631254392438E-9 9.407455985536291E-12
node -1.050685102784263E-14 3.467599669403233E-14 -8.237055203629252E-12 2.881601600305813E-10 -2.769765036003125E-10 -2.535247922815969E-11
peri -4.140044094623616E-13 1.432902049925587E-12 1.657631254392438E-9 -2.769765036003125E-10 5.69238869652518E-10 2.606664457148201E-11
i -3.21964464281376E-15 1.292729218863079E-14 9.407455985536291E-12 -2.535247922815969E-11 2.606664457148201E-11 4.106844842756761E-11

Ephemeris | Orbit Diagram | Orbital Elements | Mission Design | Physical Parameters | Discovery Circumstances | Close-Approach Data ]

Physical Parameter Table
Parameter Symbol Value Units Sigma Reference Notes
absolute magnitude H 15.0   n/a MPO470297  

214070 (2004 GF9)          Discovered 2004-Apr-12 by LONEOS at Anderson Mesa
Reference: 20090509/Numbers.arcLast Updated: 2009-05-11

[ show close-approach data ]
Ephemeris | Orbit Diagram | Orbital Elements | Mission Design | Physical Parameters | Discovery Circumstances | Close-Approach Data ]
ABOUT SSD CREDITS/AWARDS PRIVACY/COPYRIGHT GLOSSARY LINKS
FirstGov 2021-Jan-28 10:17 UT
(server date/time)  
NASA Home Page
Site Manager:   Ryan S. Park
Webmaster  Alan B. Chamberlin